(458350) = 2010 VG179 = 2014 SQ184

Discovered at Kitt Peak on 2010-11-01 by Spacewatch.

Orbit

Orbit type: Main Belt

Note: WebGL enabled browser required.

epoch2023-09-13.0
epoch JD2460200.5
perihelion date2019-04-15.58028
perihelion JD2458589.08028
argument of perihelion (°)308.10990
ascending node (°)57.46872
inclination (°)7.33317
eccentricity0.0348695
perihelion distance (AU)2.6307765
Tisserand w.r.t. Jupiter3.3
ΔV w.r.t. Earth (km/sec)10.4
semimajor axis (AU)2.7258248
mean anomaly (°)352.91134
mean daily motion (°/day)0.21900650
aphelion distance (AU)2.821
period (years)4.5
P-vector [x]0.98983782
P-vector [y]0.13231383
P-vector [z]-0.05209739
Q-vector [x]-0.09295558
Q-vector [y]0.87931108
Q-vector [z]0.46708809
absolute magnitude17.27
phase slope0.15
uncertainty0
referenceMPO 780128
observations used157
oppositions10
arc length (days)5669
first opposition used2008
last opposition used2023
residual rms (arc-secs)0.72
perturbers coarse indicatorM-v
perturbers precise indicator003Ek
first observation date used2008-04-08.0
last observation date used2023-10-16.0
computer nameMPCLINUX
JD of orbit computation2457428.257878
perihelion JD uncertainty (days)3.6444E-04
argument of perihelion uncertainty (°)9.0287E-05
ascending node uncertainty (°)3.5787E-05
inclination uncertainty (°)3.6919E-06
eccentricity uncertainty 6.4411E-08
perihelion distance uncertainty (AU)1.7197E-07
Minimum Orbit Intersection Distances (in AU)
for orbit epoch: 2460200.5, reference: E2023-U42
Mercury2.24035
Venus1.90558
Earth1.63685
Mars1.14065
Jupiter2.32495
Saturn6.3483
Uranus15.6496
Neptune27.1984

Observations

160 total observations over interval: 2008 04 08.21559 – 2023 10 16.243199
These data are available for download (format description).

Date (UT) J2000 RA J2000 Dec Magn Location Ref
2008 04 08.21559 13 45 03.79 -03 58 39.8 21.4 V 691 – Steward Observatory, Kitt Peak-Spacewatch MPS 533308
2008 04 08.23322 13 45 02.88 -03 58 36.5 21.5 V 691 – Steward Observatory, Kitt Peak-Spacewatch MPS 533308
2008 04 08.25084 13 45 01.98 -03 58 32.9 21.2 V 691 – Steward Observatory, Kitt Peak-Spacewatch MPS 533308
2010 11 01.19974 03 55 04.50 +19 19 52.1   691 – Steward Observatory, Kitt Peak-Spacewatch MPS 384042
2010 11 01.21743 03 55 03.57 +19 19 52.8   691 – Steward Observatory, Kitt Peak-Spacewatch MPS 384042
2010 11 01.23510 03 55 02.69 +19 19 52.9   691 – Steward Observatory, Kitt Peak-Spacewatch MPS 384042
2010 11 11.34765 03 45 49.17 +19 18 49.9 20.5 V G96 – Mt. Lemmon Survey MPS 357697
2010 11 11.35343 03 45 48.85 +19 18 50.2 20.4 V G96 – Mt. Lemmon Survey MPS 357697
2010 11 11.35918 03 45 48.49 +19 18 49.8 21.0 V G96 – Mt. Lemmon Survey MPS 357697
2010 11 11.36491 03 45 48.16 +19 18 49.7 20.4 V G96 – Mt. Lemmon Survey MPS 357697
2010 11 14.16705 03 43 02.50 +19 17 48.2 20.5 V 691 – Steward Observatory, Kitt Peak-Spacewatch MPS 357697
2010 11 14.18475 03 43 01.42 +19 17 48.2 20.5 V 691 – Steward Observatory, Kitt Peak-Spacewatch MPS 357697
2010 11 14.20248 03 43 00.36 +19 17 47.7 20.9 V 691 – Steward Observatory, Kitt Peak-Spacewatch MPS 357697
2010 11 25.23377 03 31 57.28 +19 11 55.5 20.5 V G96 – Mt. Lemmon Survey MPS 357697
2010 11 25.24008 03 31 56.96 +19 11 55.7 20.5 V G96 – Mt. Lemmon Survey MPS 357697
2010 11 25.24639 03 31 56.56 +19 11 55.8 20.7 V G96 – Mt. Lemmon Survey MPS 357697
2010 11 25.25275 03 31 56.17 +19 11 55.3 20.6 V G96 – Mt. Lemmon Survey MPS 357697
2012 03 16.29436 10 35 16.76 +20 26 05.2 20.8 V G96 – Mt. Lemmon Survey MPS 533308
2012 03 16.30196 10 35 16.44 +20 26 06.0 20.8 V G96 – Mt. Lemmon Survey MPS 533308
2012 03 16.30961 10 35 16.04 +20 26 06.6 21.5 V G96 – Mt. Lemmon Survey MPS 533308
2014 08 20.52983 00 43 47.362 -05 54 32.94 20.7 i F51 – Pan-STARRS 1, Haleakala MPS 533308
2014 08 20.54207 00 43 47.133 -05 54 35.33 21.1 i F51 – Pan-STARRS 1, Haleakala MPS 533308
2014 08 20.56654 00 43 46.691 -05 54 40.61 21.2 i F51 – Pan-STARRS 1, Haleakala MPS 533308
2014 08 27.49572 00 41 17.147 -06 20 43.05 21.3 w F51 – Pan-STARRS 1, Haleakala MPS 533308
2014 08 27.50716 00 41 16.827 -06 20 45.91 21.3 w F51 – Pan-STARRS 1, Haleakala MPS 533308
2014 08 27.51856 00 41 16.502 -06 20 48.68 21.2 w F51 – Pan-STARRS 1, Haleakala MPS 533308
2014 08 30.50214 00 39 50.475 -06 33 13.87 21.2 w F51 – Pan-STARRS 1, Haleakala MPS 533308
2014 08 30.51318 00 39 50.097 -06 33 16.82 21.2 w F51 – Pan-STARRS 1, Haleakala MPS 533308
2014 08 30.52425 00 39 49.745 -06 33 19.65 21.1 w F51 – Pan-STARRS 1, Haleakala MPS 533308
2014 08 30.53529 00 39 49.371 -06 33 22.36 21.1 w F51 – Pan-STARRS 1, Haleakala MPS 533308
2014 09 20.43293 00 24 58.875 -08 06 38.88 20.8 w F51 – Pan-STARRS 1, Haleakala MPS 533788
2014 09 20.44512 00 24 58.225 -08 06 42.04 20.8 w F51 – Pan-STARRS 1, Haleakala MPS 533788
2014 09 20.45728 00 24 57.578 -08 06 45.09 20.8 w F51 – Pan-STARRS 1, Haleakala MPS 533788
2014 09 20.46954 00 24 56.922 -08 06 48.22 20.8 w F51 – Pan-STARRS 1, Haleakala MPS 533788
2014 09 22.42996 00 23 15.955 -08 14 54.04 20.8 w F51 – Pan-STARRS 1, Haleakala MPS 533788
2014 09 22.45396 00 23 14.664 -08 15 00.10 20.8 w F51 – Pan-STARRS 1, Haleakala MPS 533788
2016 01 02.40451 07 30 29.30 +30 30 12.4 21.0 V G96 – Mt. Lemmon Survey MPS 665527
2016 01 02.40910 07 30 29.02 +30 30 13.7 20.9 V G96 – Mt. Lemmon Survey MPS 665527
2016 01 02.41369 07 30 28.72 +30 30 14.8 20.9 V G96 – Mt. Lemmon Survey MPS 665527
2016 01 02.41827 07 30 28.40 +30 30 16.2 20.7 V G96 – Mt. Lemmon Survey MPS 665527
2016 01 02.43458 07 30 27.42 +30 30 20.7 20.9 V 691 – Steward Observatory, Kitt Peak-Spacewatch MPS 665527
2016 01 02.43989 07 30 27.08 +30 30 21.5 21.1 V 691 – Steward Observatory, Kitt Peak-Spacewatch MPS 665527
2016 01 02.44520 07 30 26.74 +30 30 22.6 21.1 V 691 – Steward Observatory, Kitt Peak-Spacewatch MPS 665527
2016 01 07.34158 07 25 22.946 +30 50 12.87 20.8 w F51 – Pan-STARRS 1, Haleakala MPS 665527
2016 01 07.35192 07 25 22.273 +30 50 15.32 20.8 w F51 – Pan-STARRS 1, Haleakala MPS 665527
2016 01 07.37263 07 25 20.929 +30 50 20.33 20.8 w F51 – Pan-STARRS 1, Haleakala MPS 665527
2016 02 09.26177 06 55 59.827 +31 44 42.59 21.5 w F51 – Pan-STARRS 1, Haleakala MPS 679133
2016 02 09.27595 06 55 59.325 +31 44 42.45 21.7 w F51 – Pan-STARRS 1, Haleakala MPS 679133
2016 02 09.30447 06 55 58.357 +31 44 41.80 21.5 w F51 – Pan-STARRS 1, Haleakala MPS 679133
2017 03 07.56074 14 03 37.911 -05 22 58.22 21.8 w F51 – Pan-STARRS 1, Haleakala MPS 777627
2017 03 07.57400 14 03 37.661 -05 22 56.88 21.7 w F51 – Pan-STARRS 1, Haleakala MPS 777627
2017 03 07.60046 14 03 37.187 -05 22 54.02 21.7 w F51 – Pan-STARRS 1, Haleakala MPS 777627
2017 03 22.41614 13 56 57.394 -04 46 58.55 21.3 w F51 – Pan-STARRS 1, Haleakala MPS 781834
2017 03 22.42840 13 56 56.929 -04 46 56.49 21.3 w F51 – Pan-STARRS 1, Haleakala MPS 781834
2017 03 22.44067 13 56 56.475 -04 46 54.31 21.4 w F51 – Pan-STARRS 1, Haleakala MPS 781834
2017 03 22.45298 13 56 55.985 -04 46 51.88 21.5 w F51 – Pan-STARRS 1, Haleakala MPS 781834
2017 04 26.36853 13 28 23.628 -03 01 44.75 21.1 w F51 – Pan-STARRS 1, Haleakala MPS 794763
2017 04 26.37919 13 28 23.079 -03 01 43.38 21.1 w F51 – Pan-STARRS 1, Haleakala MPS 794763
2017 04 26.38986 13 28 22.522 -03 01 42.13 21.1 w F51 – Pan-STARRS 1, Haleakala MPS 794763
2017 04 26.40055 13 28 21.952 -03 01 40.70 21.2 w F51 – Pan-STARRS 1, Haleakala MPS 794763
2018 07 10.44373 20 56 02.690 -28 01 22.80 21.1 w F51 – Pan-STARRS 1, Haleakala MPS 905999
2018 07 10.45499 20 56 02.191 -28 01 26.69 21.0 w F51 – Pan-STARRS 1, Haleakala MPS 905999
2018 07 10.46635 20 56 01.670 -28 01 30.74 21.0 w F51 – Pan-STARRS 1, Haleakala MPS 905999
2018 07 10.47763 20 56 01.165 -28 01 34.72 21.1 w F51 – Pan-STARRS 1, Haleakala MPS 905999
2018 08 07.37425 20 31 18.575 -30 12 49.00 21.0 w F51 – Pan-STARRS 1, Haleakala MPS 909753
2018 08 07.38266 20 31 18.091 -30 12 50.55 20.9 w F51 – Pan-STARRS 1, Haleakala MPS 909753
2018 08 07.39106 20 31 17.605 -30 12 52.09 21.0 w F51 – Pan-STARRS 1, Haleakala MPS 909753
2018 08 07.39948 20 31 17.131 -30 12 53.62 21.0 w F51 – Pan-STARRS 1, Haleakala MPS 909753
2019 10 23.59331 03 58 55.385 +19 04 24.12 21.2 w F51 – Pan-STARRS 1, Haleakala MPS 1064810
2019 10 23.60392 03 58 54.960 +19 04 24.50 21.3 w F51 – Pan-STARRS 1, Haleakala MPS 1064810
2019 10 23.61456 03 58 54.543 +19 04 24.71 21.3 w F51 – Pan-STARRS 1, Haleakala MPS 1064810
2019 10 23.62522 03 58 54.104 +19 04 24.97 21.1 w F51 – Pan-STARRS 1, Haleakala MPS 1064810
2019 10 24.29452 03 58 28.48 +19 04 43.6 21.4 G G96 – Mt. Lemmon Survey MPS 1064810
2019 10 24.29967 03 58 28.28 +19 04 44.3 21.5 G G96 – Mt. Lemmon Survey MPS 1064810
2019 10 24.30482 03 58 28.10 +19 04 43.9 21.1 G G96 – Mt. Lemmon Survey MPS 1064810
2019 10 24.30997 03 58 27.85 +19 04 44.3 21.1 G G96 – Mt. Lemmon Survey MPS 1064810
2019 11 02.54235 03 51 25.440 +19 06 52.48 21.0 w F52 – Pan-STARRS 2, Haleakala MPS 1078310
2019 11 02.55467 03 51 24.789 +19 06 52.42 20.9 w F52 – Pan-STARRS 2, Haleakala MPS 1078310
2019 11 02.57921 03 51 23.483 +19 06 52.44 21.0 w F52 – Pan-STARRS 2, Haleakala MPS 1078310
2019 11 05.34067 03 48 57.70 +19 06 41.0 20.9 G G96 – Mt. Lemmon Survey MPS 1078310
2019 11 05.34579 03 48 57.42 +19 06 41.0 21.0 G G96 – Mt. Lemmon Survey MPS 1078310
2019 11 05.35090 03 48 57.15 +19 06 40.8 21.0 G G96 – Mt. Lemmon Survey MPS 1078310
2019 11 05.35601 03 48 56.85 +19 06 40.9 21.2 G G96 – Mt. Lemmon Survey MPS 1078310
2019 11 17.46968 03 37 13.018 +19 02 22.82 20.3 i F51 – Pan-STARRS 1, Haleakala MPS 1083802
2019 11 17.48699 03 37 11.935 +19 02 22.18 20.3 i F51 – Pan-STARRS 1, Haleakala MPS 1083802
2019 11 17.50060 03 37 11.088 +19 02 21.95 20.2 i F51 – Pan-STARRS 1, Haleakala MPS 1083802
2019 11 17.51425 03 37 10.243 +19 02 21.03 20.3 i F51 – Pan-STARRS 1, Haleakala MPS 1083802
2019 11 19.32966 03 35 20.69 +19 01 19.1 20.2 G G96 – Mt. Lemmon Survey MPS 1083802
2019 11 19.33526 03 35 20.35 +19 01 18.9 20.6 G G96 – Mt. Lemmon Survey MPS 1083802
2019 11 19.34085 03 35 20.01 +19 01 18.2 20.3 G G96 – Mt. Lemmon Survey MPS 1083802
